This is the latest recevied weather packets stored in our database for station/object KB0BS-13. If no packets are shown the sender has not sent any weather packets the latest 1 day(s).
| Time | Temp. | Humidity | Pressure | Rain* | Wind** | Luminosity | Snow |
|---|---|---|---|---|---|---|---|
| 1778037027 | 0.56° C | 82% | 1011.4 hPa | 0 mm | - | 0 W/m² | - |
| 1778036725 | 0.56° C | 81% | 1011.6 hPa | 0 mm | - | 0 W/m² | - |
| 1778036422 | 0.56° C | 82% | 1011 hPa | 0 mm | - | 0 W/m² | - |
| 1778036119 | 0.56° C | 83% | 1011.1 hPa | 0 mm | - | 0 W/m² | - |
| 1778035815 | 0.56° C | 83% | 1011.1 hPa | 0 mm | - | 0 W/m² | - |
| 1778035512 | 1.11° C | 82% | 1011.1 hPa | 0 mm | - | 0 W/m² | - |
| 1778035208 | 1.11° C | 83% | 1011.1 hPa | 0 mm | - | 0 W/m² | - |
| 1778034601 | 1.11° C | 82% | 1011 hPa | 0 mm | - | 0 W/m² | - |
| 1778033997 | 1.67° C | 81% | 1011.1 hPa | 0 mm | - | 0 W/m² | - |
| 1778033694 | 1.67° C | 79% | 1010.9 hPa | 0 mm | - | 0 W/m² | - |
| 1778033391 | 1.67° C | 79% | 1010.9 hPa | 0 mm | - | 0 W/m² | - |
| 1778033089 | 1.67° C | 81% | 1011 hPa | 0 mm | - | 0 W/m² | - |
| 1778032483 | 2.22° C | 80% | 1010.9 hPa | 0 mm | - | 0 W/m² | - |
| 1778032180 | 1.67° C | 86% | 1010.7 hPa | 0 mm | - | 0 W/m² | - |
| 1778031877 | 1.67° C | 87% | 1010.9 hPa | 0 mm | - | 0 W/m² | - |
| 1778031573 | 1.67° C | 86% | 1010.8 hPa | 0 mm | - | 0 W/m² | - |
| 1778030664 | 1.67° C | 86% | 1010.7 hPa | 0 mm | - | 0 W/m² | - |
| 1778030361 | 2.22° C | 86% | 1010.5 hPa | 0 mm | - | 0 W/m² | - |
| 1778029755 | 2.22° C | 86% | 1010.5 hPa | 0 mm | - | 0 W/m² | - |
| 1778029454 | 2.22° C | 84% | 1010.5 hPa | 0 mm | - | 0 W/m² | - |
| 1778029150 | 2.22° C | 84% | 1010.6 hPa | 0 mm | - | 1 W/m² | - |
| 1778028848 | 2.22° C | 85% | 1010.4 hPa | 0 mm | - | 1 W/m² | - |
| 1778028241 | 2.22° C | 85% | 1010.3 hPa | 0 mm | - | 3 W/m² | - |
| 1778027633 | 2.22° C | 85% | 1010.1 hPa | 0 mm | - | 5 W/m² | - |
| 1778027026 | 2.78° C | 86% | 1009.9 hPa | 0 mm | - | 10 W/m² | - |
* Rain latest hour (hover to see other rain measurements)
** Current wind speed in m/s (hover to see current wind gust speed)